Location: Eastlake (historical)
(39.0077°N, 122.6678°W)
Time: 03:16:54
(UTC+00:00)

ALOS - Pass Details

Date: 23 April 2021
Orbit: 682 x 685 km, 97.9° (Epoch: 18 May)

Event Time Altitude Azimuth Distance (km) Brightness Sun altitude
Rises 12:23:18 0° 12° (NNE) 3,054 6.2 -11.5°
Reaches altitude 10° 12:25:33 10° 13° (NNE) 2,133 5.4 -11.1°
Maximum altitude 12:30:14 87° 101° (E) 689 2.3 -10.3°
Drops below altitude 10° 12:34:52 10° 192° (SSW) 2,117 4.4 -9.4°
Sets 12:37:06 0° 193° (SSW) 3,028 5.2 -9.0°
